{"data":{"norad_id":47816,"intl_designator":"2021-018AF","name":"STARLINK-2399","alt_names":[],"object_type":"PAYLOAD","status":"ACTIVE","operator":null,"country":"US","launch_date":"2021-03-11","launch_site_code":"AFETR","launch_vehicle":null,"mission":null,"orbit_class":"UNKNOWN","rcs_meters":null,"size_class":null,"mass_kg":null,"dimensions":null,"purposes":["comms"],"wikipedia_slug":null,"has_3d_model":false,"image_url":null,"decayed_at":null,"tle_current":{"epoch":"2026-09-19T22:37:00.106176Z","epoch_age_seconds":77413,"freshness":"FRESH","line1":"1 47816U 21018AF  26262.94236234  .00001524  00000+0  60828-4 0  9998","line2":"2 47816  53.1593  74.1694 0001291  89.4742 270.6408 15.31713380306257","mean_motion":15.3171338,"eccentricity":0.0001291,"inclination_deg":53.1593,"raan_deg":74.1694,"arg_perigee_deg":89.4742,"mean_anomaly_deg":270.6408,"bstar":6.0828e-5,"rev_number":30625,"period_min":94.012366726208,"perigee_km":469.81592556127,"apogee_km":471.58429530318,"semimajor_km":6848.8371104322,"source":"CELESTRAK","updated_at":"2026-09-20T09:00:38.748978Z"}}}